Melbourne, FL

2:46 AM EST on January 21, 2017 (GMT -0500)
Melbourne International Airport

Weather History for KMLB - January, 2017

Change the Weather History Date:

Thursday, January 12, 2017

  Actual Average Record
Temperature  
Mean Temperature 65 °F 60 °F  
Max Temperature 75 °F 71 °F 85 °F (1993)
Min Temperature 54 °F 49 °F 25 °F (2010)
Degree Days  
Heating Degree Days 0 6  
Month to date heating degree days 39 72  
Since 1 July heating degree days 86 251  
Cooling Degree Days 0 1  
Month to date cooling degree days 28 15  
Year to date cooling degree days 28 15  
Growing Degree Days 14 (Base 50)    
Moisture  
Dew Point 63 °F    
Average Humidity 84    
Maximum Humidity 100    
Minimum Humidity 68    
Precipitation  
Precipitation 0.02 in 0.08 in 4.70 in (1979)
Month to date precipitation 0.47 0.84  
Year to date precipitation 0.47 0.84  
Sea Level Pressure  
Sea Level Pressure 30.34 in    
Wind  
Wind Speed 4 mph (NE)    
Max Wind Speed 20 mph    
Max Gust Speed 23 mph    
Visibility 8 miles    
Events Rain    
T = Trace of Precipitation, MM = Missing Value Source: NWS Daily Summary

Daily Weather History Graph

Daily Weather History Graph

Search for Another Location

Airport or City:

Trip Planner

Search our weather history database for the weather conditions in past years. The results will help you decide how hot, cold, wet, or windy it might be!

Date:

Astronomy

Jan. 12, 2017 Rise Set
Actual Time 7:15 AM EST 5:46 PM EST
Civil Twilight 6:50 AM EST 6:12 PM EST
Nautical Twilight 6:21 AM EST 6:41 PM EST
Astronomical Twilight 5:52 AM EST 7:09 PM EST
Moon 6:18 PM EST (1/12) 7:09 AM EST (1/12)
Length of Visible Light 11h 22m
Length of Day
10h 31m
Full, 100% of the Moon is Illuminated
Jan 12
Full
Jan 19
Last Quarter
Jan 27
New
Feb 3
First Quarter
Feb 10
Full

Hourly Weather History & Observations

Time (EST) Temp. Dew Point Humidity Pressure Visibility Wind Dir Wind Speed Gust Speed Precip Events Conditions
12:53 AM 66.0 °F 62.1 °F 87% 30.31 in 10.0 mi Calm Calm - 0.00 in   Overcast
1:53 AM 66.0 °F 62.1 °F 87% 30.31 in 10.0 mi NE 3.5 mph - N/A   Overcast
2:53 AM 64.0 °F 63.0 °F 96% 30.31 in 10.0 mi Calm Calm - N/A   Mostly Cloudy
3:53 AM 63.0 °F 62.1 °F 97% 30.30 in 10.0 mi Calm Calm - N/A   Mostly Cloudy
4:45 AM 60.1 °F 60.1 °F 100% 30.30 in 1.8 mi Calm Calm - N/A   Clear
4:53 AM 60.1 °F 60.1 °F 100% 30.30 in 0.8 mi Calm Calm - N/A   Clear
5:03 AM 57.9 °F 57.9 °F 100% 30.30 in 1.2 mi Calm Calm - N/A   Clear
5:26 AM 57.9 °F 57.9 °F 100% 30.30 in 2.5 mi Calm Calm - N/A   Clear
5:53 AM 57.0 °F 57.0 °F 100% 30.30 in 7.0 mi Calm Calm - N/A   Clear
6:53 AM 55.0 °F 55.0 °F 100% 30.32 in 7.0 mi Calm Calm - N/A   Clear
7:53 AM 57.0 °F 55.9 °F 96% 30.34 in 10.0 mi North 3.5 mph - N/A   Clear
8:53 AM 68.0 °F 63.0 °F 84% 30.35 in 10.0 mi Calm Calm - N/A   Partly Cloudy
9:53 AM 72.0 °F 62.1 °F 71% 30.37 in 10.0 mi East 5.8 mph - N/A   Scattered Clouds
10:53 AM 73.0 °F 62.1 °F 68% 30.38 in 10.0 mi ESE 8.1 mph - 0.00 in   Mostly Cloudy
11:53 AM 73.0 °F 64.0 °F 73% 30.36 in 8.0 mi SE 5.8 mph - 0.00 in Rain Light Rain
12:53 PM 72.0 °F 64.9 °F 78% 30.35 in 10.0 mi South 8.1 mph - 0.00 in   Mostly Cloudy
1:53 PM 73.0 °F 64.9 °F 76% 30.34 in 10.0 mi ENE 11.5 mph - N/A   Overcast
2:53 PM 72.0 °F 64.9 °F 78% 30.33 in 10.0 mi ENE 13.8 mph - N/A   Overcast
3:53 PM 73.0 °F 64.0 °F 73% 30.33 in 10.0 mi Variable 4.6 mph - N/A   Mostly Cloudy
4:53 PM 72.0 °F 64.0 °F 76% 30.33 in 10.0 mi NE 6.9 mph - N/A   Scattered Clouds
5:53 PM 68.0 °F 66.0 °F 93% 30.34 in 4.0 mi ENE 10.4 mph - 0.00 in Rain Light Rain
6:01 PM 66.9 °F 66.0 °F 97% 30.35 in 1.8 mi East 8.1 mph - 0.01 in Rain Light Rain
6:20 PM 66.9 °F 66.9 °F 100% 30.34 in 3.0 mi Calm Calm - 0.02 in Rain Light Rain
6:28 PM 66.9 °F 66.9 °F 100% 30.34 in 9.0 mi Calm Calm - 0.02 in   Overcast
6:53 PM 66.9 °F 66.9 °F 100% 30.35 in 9.0 mi NNE 6.9 mph - 0.02 in Rain Light Rain
7:53 PM 64.9 °F 64.9 °F 100% 30.36 in 10.0 mi Calm Calm - 0.00 in   Scattered Clouds
8:53 PM 64.0 °F 64.0 °F 100% 30.36 in 10.0 mi North 4.6 mph - N/A   Partly Cloudy
9:53 PM 63.0 °F 63.0 °F 100% 30.37 in 7.0 mi NNW 3.5 mph - N/A   Clear
10:53 PM 64.9 °F 64.9 °F 100% 30.37 in 8.0 mi NNE 3.5 mph - 0.00 in   Overcast
11:12 PM 64.9 °F 64.9 °F 100% 30.36 in 6.0 mi North 3.5 mph - 0.00 in Rain Light Rain
11:34 PM 66.0 °F 66.0 °F 100% 30.35 in 10.0 mi North 4.6 mph - 0.00 in   Overcast
11:53 PM 64.9 °F 64.9 °F 100% 30.35 in 7.0 mi Calm Calm - 0.00 in   Scattered Clouds